Location: Bacea
(45.9500°N, 22.6667°E)
Time: 05:58:19
(UTC+00:00)

Cosmos 1953 - Pass Details

Date: 03 June 2022
Orbit: 533 x 555 km, 82.5° (Epoch: 03 July)

Event Time Altitude Azimuth Distance (km) Brightness Sun altitude
Rises 21:14:38 0° 0° (N) 2,715 7.2 -19.7°
Reaches altitude 10° 21:17:03 10° 12° (NNE) 1,814 5.8 -19.8°
Maximum altitude 21:20:31 28° 73° (ENE) 1,025 3.6 -20.0°
Enters shadow 21:21:15 27° 93° (E) 1,069 3.6 -20.0°
